TimePDT,TemperatureF,Dew PointF,Humidity,Sea Level PressureIn,VisibilityMPH,Wind Direction,Wind SpeedMPH,Gust SpeedMPH,PrecipitationIn,Events,Conditions,WindDirDegrees,DateUTC
12:53 AM,64.0,42.1,45,29.65,10.0,NW,6.9,-,N/A,,Overcast,320,2013-10-09 07:53:00
1:53 AM,63.0,41.0,45,29.64,10.0,WNW,5.8,-,N/A,,Overcast,300,2013-10-09 08:53:00
2:53 AM,60.1,42.1,51,29.63,10.0,NNW,8.1,-,N/A,,Overcast,330,2013-10-09 09:53:00
3:53 AM,57.9,43.0,58,29.62,10.0,Variable,3.5,-,N/A,,Overcast,0,2013-10-09 10:53:00
4:53 AM,57.0,43.0,59,29.64,10.0,Calm,Calm,-,N/A,,Mostly Cloudy,0,2013-10-09 11:53:00
5:53 AM,55.9,43.0,62,29.63,10.0,ESE,4.6,-,N/A,,Mostly Cloudy,110,2013-10-09 12:53:00
6:53 AM,55.9,44.1,64,29.64,10.0,SE,6.9,-,N/A,,Overcast,130,2013-10-09 13:53:00
7:53 AM,57.0,44.1,62,29.65,6.0,ESE,10.4,-,N/A,,Haze,120,2013-10-09 14:53:00
8:53 AM,57.9,44.1,60,29.65,6.0,SE,12.7,-,N/A,,Haze,130,2013-10-09 15:53:00
9:53 AM,60.1,44.1,55,29.65,7.0,ESE,11.5,-,N/A,,Mostly Cloudy,120,2013-10-09 16:53:00
10:53 AM,61.0,45.0,56,29.67,7.0,ESE,10.4,-,N/A,,Overcast,120,2013-10-09 17:53:00
11:53 AM,62.1,45.0,53,29.66,6.0,ESE,12.7,-,N/A,,Haze,110,2013-10-09 18:53:00
12:53 PM,64.0,44.1,48,29.64,6.0,ESE,15.0,-,N/A,,Haze,110,2013-10-09 19:53:00
1:53 PM,63.0,45.0,52,29.64,5.0,ESE,16.1,21.9,N/A,,Haze,110,2013-10-09 20:53:00
2:53 PM,63.0,45.0,52,29.65,6.0,East,13.8,19.6,N/A,,Haze,90,2013-10-09 21:53:00
3:53 PM,62.1,44.1,52,29.67,7.0,ESE,10.4,-,N/A,,Overcast,110,2013-10-09 22:53:00
4:53 PM,62.1,45.0,53,29.68,9.0,East,8.1,-,N/A,,Overcast,90,2013-10-09 23:53:00
5:53 PM,61.0,45.0,56,29.69,10.0,SE,5.8,-,N/A,,Scattered Clouds,130,2013-10-10 00:53:00
6:53 PM,60.1,44.1,55,29.70,10.0,Calm,Calm,-,N/A,,Mostly Cloudy,0,2013-10-10 01:53:00
7:53 PM,61.0,44.1,54,29.72,10.0,Calm,Calm,-,N/A,,Mostly Cloudy,0,2013-10-10 02:53:00
8:53 PM,61.0,44.1,54,29.73,10.0,Calm,Calm,-,N/A,,Mostly Cloudy,0,2013-10-10 03:53:00
9:53 PM,59.0,45.0,60,29.75,10.0,Calm,Calm,-,N/A,,Mostly Cloudy,0,2013-10-10 04:53:00
10:53 PM,59.0,44.1,58,29.77,10.0,Calm,Calm,-,N/A,,Mostly Cloudy,0,2013-10-10 05:53:00
11:53 PM,57.9,45.0,62,29.78,10.0,SSE,3.5,-,N/A,,Scattered Clouds,150,2013-10-10 06:53:00